Flag for Canada Weather past 2 weeks in Happy Valley-Goose Bay, Newfoundland and Labrador, Canada

Now
27 °F

Sleet. Mostly cloudy.


Feels Like: 19 °F
Forecast: 16 / 47 °F
Wind: 7 mph from East

Location: Goose

Current Time: Dec 25, 2014 at 9:40:42 AM

Latest Report: Dec 25, 2014 at 9:00 AM


Visibility: 4 mi

Pressure: 29.70 "Hg

Humidity: 86%

Dew point: 23 °F

Location of Happy Valley-Goose BayLocation

Historic Weather in Happy Valley-Goose Bay — Graph

°F

Happy Valley-Goose Bay temperature yesterday

Maximum temperature yesterday: 18 °F (at 2:00 PM)
Minimum temperature yesterday: 3 °F (at 6:00 AM)
Average temperature yesterday: 11 °F

Past Weeks' High & Low Weather Summary

 TemperatureHumidityPressure
High36 °F (Dec 14, 11:00 PM)87% (Dec 14, 8:00 PM)30.83 "Hg (Dec 14, 8:00 PM)
Low-8 °F (Dec 11, 12:00 AM)53% (Dec 16, 3:00 PM)29.55 "Hg (Dec 14, 7:00 PM)
Average13 °F72%30.18 "Hg
* Reported Dec 10 8:00 AM — Dec 25 8:00 AM, Happy Valley-Goose Bay, Weather by CustomWeather, © 2014

Note: Actual official high and low records may vary slightly from our data, if they occured in-between our weather recording intervals... More about our weather records

Advertising

Happy Valley-Goose Bay weather history for previous 24 hours

 ConditionsComfort  
Time TempWeatherWind HumidityBarometerVisibility
8:00 AM
Dec 25
21 °FSleet. Mostly cloudy.9 mph86%29.75 "Hg3 mi
7:00 AM19 °FSleet. Overcast.12 mph86%29.82 "Hg3 mi
6:00 AM19 °FSleet. Mostly cloudy.8 mph79%29.88 "Hg4 mi
5:51 AMN/ASleet.10 mphN/AN/A4 mi
5:00 AM18 °FSleet. Mostly cloudy.15 mph79%29.93 "Hg5 mi
4:53 AMN/ASleet.14 mphN/AN/A5 mi
4:00 AM18 °FSleet. Mostly cloudy.12 mph79%29.96 "Hg4 mi
3:00 AM18 °FLight snow. Overcast.15 mph79%30.00 "Hg1 mi
2:00 AM18 °FLight snow. Overcast.12 mph79%30.05 "Hg1 mi
1:00 AM18 °FLight snow. Overcast.8 mph86%30.07 "Hg1 mi
12:00 AM18 °FLight snow. Overcast.6 mph79%30.11 "Hg1 mi
11:00 PM
Dec 24
16 °FLight snow. Overcast.6 mph86%30.16 "Hg2 mi
10:45 PMN/ALight snow.6 mphN/AN/A2 mi
10:00 PM16 °FLight snow. Overcast.5 mph86%30.20 "Hg2 mi
9:00 PM16 °FLight snow. Mostly cloudy.5 mph79%30.24 "Hg4 mi
8:00 PM16 °FSnow flurries. Mostly cloudy.5 mph73%30.25 "Hg15 mi
7:00 PM16 °FMostly cloudy.No wind73%30.25 "Hg15 mi
6:00 PM16 °FMostly cloudy.No wind73%30.25 "Hg15 mi
5:00 PM16 °FOvercast.2 mph67%30.27 "Hg15 mi
4:00 PM16 °FOvercast.5 mph67%30.30 "Hg15 mi
3:00 PM18 °FMore clouds than sun.2 mph62%30.32 "Hg15 mi
2:00 PM18 °FOvercast.No wind62%30.29 "Hg15 mi
1:00 PM16 °FPartly sunny.No wind67%30.30 "Hg15 mi
12:00 PM14 °FPartly sunny.10 mph67%30.33 "Hg15 mi
11:00 AM12 °FScattered clouds.6 mph73%30.34 "Hg15 mi
10:00 AM9 °FPartly sunny.3 mph78%30.35 "Hg15 mi
9:00 AM5 °FPartly sunny.7 mph78%30.35 "Hg15 mi
Weather by CustomWeather, © 2014

See weather overviewHow to use our weather pages